Date,TemperatureHighF,TemperatureAvgF,TemperatureLowF,DewpointHighF,DewpointAvgF,DewpointLowF,HumidityHigh,HumidityAvg,HumidityLow,PressureMaxIn,PressureMinIn,WindSpeedMaxMPH,WindSpeedAvgMPH,GustSpeedMaxMPH,PrecipitationSumIn
2013-1-1,24,19,12,15,13,8,91,79,60,0.00,40.00,6,1,6,0.00
2013-1-2,20,18,16,15,11,9,91,75,66,0.00,40.00,4,0,4,0.00
2013-1-3,23,17,13,11,8,5,78,67,50,0.00,40.00,6,1,6,0.00
2013-1-4,38,32,16,17,14,7,75,47,42,0.00,40.00,9,3,9,0.00
2013-1-5,28,26,0,24,21,0,93,80,66,0.00,40.00,6,0,6,0.00
2013-1-6,38,32,25,25,23,21,88,68,54,0.00,40.00,10,2,10,0.00
2013-1-7,48,41,34,31,27,21,77,58,47,0.00,40.00,17,4,17,0.00
2013-1-8,53,43,37,33,31,26,79,62,46,0.00,40.00,13,2,13,0.00
2013-1-9,47,39,27,30,23,15,74,53,41,0.00,40.00,16,4,16,0.00
2013-1-10,35,27,20,27,19,13,84,73,49,0.00,40.00,8,0,8,0.00
2013-1-11,32,22,16,18,13,10,86,70,44,0.00,40.00,8,0,8,0.00
2013-1-12,27,17,10,11,7,4,79,64,45,0.00,40.00,9,1,9,0.00
2013-1-13,28,18,10,13,7,2,77,65,41,0.00,40.00,8,1,8,0.00
2013-1-14,37,24,13,22,9,1,79,55,36,0.00,40.00,9,2,9,0.00
2013-1-15,44,30,20,21,16,10,75,57,38,0.00,40.00,10,3,10,0.00
2013-1-16,50,34,23,20,15,10,61,48,29,0.00,40.00,10,3,10,0.00
2013-1-17,49,35,24,20,15,12,61,45,30,0.00,40.00,11,3,11,0.00
2013-1-18,46,34,26,18,14,10,53,44,31,0.00,40.00,11,4,11,0.00
2013-1-19,51,34,24,21,16,11,68,48,28,0.00,40.00,9,2,10,0.00
2013-1-20,43,30,21,23,16,10,89,58,37,0.00,40.00,6,1,6,0.00
2013-1-21,45,26,16,21,16,10,92,70,30,0.00,40.00,8,1,8,0.00
2013-1-22,26,21,17,22,19,14,96,90,80,0.00,40.00,8,0,8,0.00
2013-1-23,34,27,23,32,24,20,95,88,77,0.00,40.00,8,1,8,0.00
2013-1-24,51,37,29,33,30,27,97,78,40,0.00,40.00,6,0,6,0.00
2013-1-25,48,43,38,43,38,32,97,84,69,0.00,40.00,10,1,10,0.00
2013-1-26,45,35,28,37,22,18,97,60,39,0.00,40.00,11,2,11,0.00
2013-1-27,41,32,26,25,21,18,82,65,40,0.00,40.00,14,1,14,0.00
2013-1-28,39,35,31,30,25,22,80,67,53,0.00,40.00,12,2,12,0.00
2013-1-29,47,40,36,28,27,24,69,59,47,0.00,40.00,13,4,13,0.00
2013-1-30,49,43,36,30,28,24,77,56,47,0.00,40.00,13,2,13,0.00
2013-1-31,48,37,28,33,29,26,95,74,47,0.00,40.00,5,0,5,0.00
2013-2-1,50,35,26,33,29,25,97,80,42,0.00,40.00,6,0,6,0.00
2013-2-2,45,33,24,33,27,22,96,81,50,0.00,40.00,6,0,6,0.00
2013-2-3,56,42,29,30,25,20,90,57,29,0.00,40.00,10,2,10,0.00
2013-2-4,52,41,33,30,26,22,80,57,36,0.00,40.00,6,0,6,0.00
2013-2-5,49,39,32,29,24,21,72,56,37,0.00,40.00,15,2,15,0.00
2013-2-6,48,38,32,25,22,20,71,54,37,0.00,40.00,8,0,8,0.00
2013-2-7,44,34,26,25,20,15,84,58,34,0.00,40.00,9,1,9,0.00
2013-2-8,42,29,18,26,18,14,90,66,35,0.00,40.00,8,0,8,0.00
2013-2-9,45,30,18,29,20,14,90,69,41,0.00,40.00,5,0,6,0.00
2013-2-10,46,31,21,28,20,16,93,67,37,0.00,40.00,6,0,6,0.00
2013-2-11,50,32,19,26,22,15,90,67,38,0.00,40.00,10,1,10,0.00
2013-2-12,50,37,27,29,26,22,95,68,39,0.00,40.00,13,2,13,0.00
2013-2-13,47,37,29,31,27,24,90,68,44,0.00,40.00,9,1,9,0.00
2013-2-14,53,38,25,34,29,24,98,75,39,0.00,40.00,8,1,8,0.00
2013-2-15,52,38,27,36,30,26,98,77,46,0.00,40.00,8,0,8,0.00
2013-2-16,52,38,29,32,27,19,95,67,37,0.00,40.00,14,2,14,0.00
2013-2-17,43,32,26,22,21,18,77,64,38,0.00,40.00,8,1,8,0.00
2013-2-18,40,31,24,24,20,17,88,65,44,0.00,40.00,6,0,6,0.00
2013-2-19,43,30,20,22,19,17,88,65,38,0.00,40.00,9,1,9,0.00
2013-2-20,46,31,19,24,19,16,90,63,36,0.00,40.00,10,1,10,0.00
2013-2-21,41,35,25,24,21,18,83,57,42,0.00,40.00,15,3,15,0.00
2013-2-22,50,38,29,32,25,19,92,58,39,0.00,40.00,17,4,17,0.00
2013-2-23,45,33,24,25,19,15,86,57,39,0.00,40.00,16,2,16,0.00
2013-2-24,47,33,21,23,19,16,85,59,34,0.00,40.00,9,1,9,0.00
2013-2-25,44,35,26,33,23,15,87,62,39,0.00,40.00,15,3,15,0.00
2013-2-26,50,35,22,22,16,11,85,50,24,0.00,40.00,11,1,11,0.00
2013-2-27,51,40,29,28,20,13,59,46,31,0.00,40.00,10,1,10,0.00
2013-2-28,57,47,39,38,33,25,84,58,44,0.00,40.00,10,2,10,0.00
2013-3-1,62,52,38,36,32,29,76,47,29,0.00,40.00,9,2,9,0.00
2013-3-2,57,50,39,33,31,30,76,50,36,0.00,40.00,10,2,10,0.00
2013-3-3,46,42,33,32,14,10,63,32,27,0.00,40.00,8,2,8,0.00
2013-3-5,43,37,31,32,22,17,93,56,40,0.00,40.00,10,1,10,0.00
2013-3-6,39,33,32,34,31,20,98,94,47,0.00,40.00,15,0,15,0.00
2013-3-7,46,40,36,28,23,20,70,51,37,0.00,40.00,8,1,8,0.00
2013-3-8,40,36,36,28,28,24,70,70,70,0.00,40.00,3,3,3,0.00
2013-3-9,55,49,35,21,19,14,49,31,25,0.00,40.00,6,1,6,0.00
2013-3-10,60,48,31,37,29,15,80,49,26,0.00,40.00,10,2,10,0.00
2013-3-11,57,46,38,38,35,33,88,67,43,0.00,40.00,9,1,9,0.00
2013-3-12,64,48,34,38,32,24,95,60,25,0.00,40.00,10,1,10,0.00
2013-3-13,67,51,39,34,31,28,71,49,27,0.00,40.00,8,1,8,0.00
2013-3-14,68,52,39,35,29,21,76,46,23,0.00,40.00,14,2,14,0.00
2013-3-15,62,50,38,37,32,25,83,53,26,0.00,40.00,9,1,9,0.00
2013-3-16,56,43,33,32,28,24,89,61,34,0.00,40.00,16,3,16,0.00
2013-3-17,45,40,36,20,18,16,47,41,36,0.00,40.00,13,6,13,0.00
2013-3-18,53,40,25,23,20,17,78,47,26,0.00,40.00,8,1,8,0.00
2013-3-19,50,38,28,36,24,19,93,61,35,0.00,40.00,6,0,6,0.04
2013-3-20,54,43,32,42,32,19,96,66,39,0.00,40.00,17,4,17,0.08
2013-3-21,46,35,27,24,19,13,79,51,38,0.00,40.00,17,4,17,0.00
2013-3-22,44,33,24,23,17,11,89,55,29,0.00,40.00,14,2,14,0.00
2013-3-23,46,34,25,20,17,10,76,52,30,0.00,40.00,8,0,8,0.00
2013-3-24,49,37,25,22,18,14,66,48,34,0.00,40.00,8,1,8,0.00
2013-3-25,52,41,30,26,22,18,72,47,36,0.00,40.00,6,1,8,0.00
2013-3-26,54,45,39,37,31,22,77,59,41,0.00,40.00,6,0,6,0.00
2013-3-27,60,44,31,44,35,29,97,73,36,0.00,40.00,9,1,9,0.00
2013-3-28,60,48,40,44,39,33,96,75,37,0.00,40.00,8,1,8,0.04
2013-3-29,67,52,42,46,40,34,95,69,33,0.00,40.00,8,0,8,0.04
2013-3-30,68,51,35,42,37,33,97,64,33,0.00,40.00,8,1,8,0.00
2013-3-31,68,47,41,37,35,30,83,65,32,0.00,40.00,9,0,9,0.00
2013-4-1,66,50,36,44,37,34,91,64,34,0.00,40.00,9,1,9,0.00
2013-4-2,68,50,35,39,35,32,96,63,30,0.00,40.00,12,2,12,0.00
2013-4-3,68,51,34,38,32,27,94,55,23,0.00,40.00,8,1,8,0.00
2013-4-4,67,52,42,43,37,33,92,58,33,0.00,40.00,20,2,20,0.04
2013-4-5,60,48,39,42,36,30,96,66,34,0.00,40.00,13,2,13,0.00
2013-4-6,58,48,42,40,32,27,83,56,35,0.00,40.00,16,4,16,0.00
2013-4-7,52,44,33,37,28,20,80,56,36,0.00,40.00,22,5,22,0.04
2013-4-8,54,39,26,26,23,19,87,55,32,0.00,40.00,12,1,12,0.00
2013-4-9,61,43,24,30,25,20,90,54,25,0.00,40.00,7,1,7,0.00
2013-4-10,60,55,39,38,32,25,57,42,35,0.00,40.00,15,5,15,0.00
2013-4-11,56,44,36,28,24,22,65,46,32,0.00,40.00,8,1,8,0.00
2013-4-12,61,52,27,29,23,20,78,34,22,0.00,40.00,16,5,16,0.00
2013-4-13,50,38,33,28,17,15,52,43,28,0.00,40.00,17,3,17,0.00
2013-4-14,51,40,33,32,25,18,91,58,33,0.00,40.00,10,2,10,0.00
2013-4-15,45,35,32,33,31,23,94,84,45,0.00,40.00,12,0,12,0.04
2013-4-16,48,42,32,31,25,20,85,52,34,0.00,40.00,10,2,10,0.04
2013-4-17,55,50,45,21,18,16,32,28,26,0.00,40.00,8,2,8,0.04
2013-4-18,63,56,47,34,32,20,50,41,31,0.00,40.00,9,2,9,0.04
2013-4-19,60,53,47,36,31,28,61,44,34,0.00,40.00,15,5,15,0.04
2013-4-20,62,56,39,30,28,26,70,36,27,0.00,40.00,12,4,12,0.00
2013-4-21,63,52,40,36,33,28,69,51,34,0.00,40.00,15,2,15,0.00
2013-4-22,56,44,32,33,23,11,85,47,26,0.00,40.00,11,2,11,0.00
2013-4-23,64,36,23,21,14,10,60,43,18,0.00,40.00,11,1,11,0.00
2013-4-24,69,58,34,26,21,12,40,25,17,0.00,40.00,9,1,9,0.00
2013-4-25,75,63,49,32,27,23,40,26,21,0.00,40.00,11,2,11,0.00
2013-4-26,78,65,46,35,31,26,51,29,18,0.00,40.00,8,2,8,0.00
2013-4-27,75,63,44,32,28,25,53,29,21,0.00,40.00,14,4,14,0.00
2013-4-28,66,58,52,32,28,24,42,32,24,0.00,40.00,15,5,15,0.00
2013-4-29,59,52,39,35,28,15,53,41,26,0.00,40.00,19,6,19,0.00
2013-4-30,54,46,35,20,18,16,50,32,26,0.00,40.00,12,3,12,0.00
2013-5-1,63,56,37,25,22,18,45,27,22,0.00,40.00,8,2,8,0.00
2013-5-2,74,69,51,31,26,20,31,20,18,0.00,40.00,9,2,9,0.00
2013-5-3,72,66,52,32,29,23,37,25,22,0.00,40.00,10,2,10,0.00
2013-5-4,70,63,56,32,28,23,36,27,22,0.00,40.00,14,4,14,0.00
2013-5-5,74,69,57,33,32,24,35,25,21,0.00,40.00,15,4,15,0.00
2013-5-6,82,73,55,36,32,24,38,23,18,0.00,40.00,12,2,12,0.00
2013-5-7,82,64,46,43,36,27,77,41,19,0.00,40.00,11,1,11,0.00
2013-5-8,83,63,44,48,40,32,81,47,16,0.00,40.00,9,1,9,0.00
2013-5-9,85,66,48,47,41,34,84,46,18,0.00,40.00,15,1,15,0.00
2013-5-10,90,69,50,45,41,37,69,40,17,0.00,40.00,10,2,10,0.00
2013-5-11,91,72,54,47,43,39,72,40,18,0.00,40.00,10,1,10,0.00
2013-5-12,85,71,58,49,42,36,70,39,20,0.00,40.00,13,2,13,0.00
2013-5-13,69,58,47,46,38,30,83,49,31,0.00,40.00,19,3,19,0.00
2013-5-14,69,55,38,36,31,27,80,44,24,0.00,40.00,8,1,8,0.00
2013-5-15,64,54,43,44,35,29,61,48,29,0.00,40.00,10,2,10,0.00
2013-5-16,66,57,49,48,40,34,89,57,33,0.00,40.00,11,2,11,0.00
2013-5-17,64,57,47,45,32,28,93,40,29,0.00,40.00,10,2,10,0.00
2013-5-18,63,56,46,38,33,30,65,43,34,0.00,40.00,14,2,14,0.00
2013-5-19,69,61,46,36,34,32,64,38,28,0.00,40.00,9,1,9,0.00
2013-5-20,77,68,48,37,33,30,54,29,20,0.00,40.00,8,2,9,0.00
2013-5-21,64,49,37,34,27,20,57,43,27,0.00,40.00,17,4,17,0.00
2013-5-22,49,42,32,26,22,19,62,46,38,0.00,40.00,13,3,13,0.00
2013-5-23,62,50,37,31,26,23,57,40,25,0.00,40.00,10,2,10,0.00
2013-5-24,63,55,41,36,29,26,77,38,26,0.00,40.00,12,3,12,0.00
2013-5-25,68,65,58,33,30,29,36,28,24,0.00,40.00,7,2,7,0.00
2013-5-26,66,62,54,39,34,32,54,36,28,0.00,40.00,12,4,12,0.00
2013-5-27,64,55,49,48,42,36,87,63,39,0.00,40.00,12,2,12,0.00
2013-5-28,68,56,46,41,34,29,75,45,27,0.00,40.00,15,3,15,0.00
2013-5-29,63,52,45,46,38,30,94,62,34,0.00,40.00,15,3,15,0.00
2013-5-30,67,54,38,32,29,26,74,42,25,0.00,40.00,11,2,11,0.00
2013-5-31,70,65,54,34,31,29,46,28,24,0.00,40.00,9,1,9,0.00
2013-6-1,77,61,41,42,36,28,80,43,21,0.00,40.00,8,1,8,0.00
2013-6-2,74,60,44,47,37,31,87,48,22,0.00,40.00,11,1,11,0.00
2013-6-3,74,65,57,37,28,23,44,25,19,0.00,40.00,9,1,9,0.00
2013-6-4,80,63,40,35,31,22,59,31,20,0.00,40.00,9,1,9,0.00
2013-6-5,88,70,48,40,36,32,59,32,18,0.00,40.00,10,1,10,0.00
2013-6-6,88,71,52,44,40,36,68,35,18,0.00,40.00,9,1,9,0.00
2013-6-7,88,70,52,43,40,36,70,37,19,0.00,40.00,14,2,14,0.00
2013-6-8,88,69,48,43,38,31,80,38,17,0.00,40.00,9,1,9,0.00
2013-6-9,83,68,51,42,35,26,62,33,19,0.00,40.00,11,1,11,0.00
2013-6-10,79,61,39,35,31,28,68,36,20,0.00,40.00,9,1,9,0.00
2013-6-11,69,56,43,35,30,25,64,39,23,0.00,40.00,15,3,15,0.00
2013-6-12,68,54,38,33,30,27,75,43,26,0.00,40.00,9,1,9,0.00
2013-6-13,67,58,47,34,32,29,58,38,27,0.00,40.00,12,4,12,0.00
2013-6-14,74,69,60,34,32,30,35,26,21,0.00,40.00,8,2,8,0.00
2013-6-15,85,75,60,39,35,30,45,24,16,0.00,40.00,8,1,8,0.00
2013-6-16,84,70,54,44,39,36,64,34,20,0.00,40.00,11,2,11,0.00
2013-6-17,90,66,42,55,41,36,95,46,19,0.00,40.00,10,1,10,0.00
2013-6-18,68,58,49,45,39,31,67,51,34,0.00,40.00,10,1,10,0.00
2013-6-19,68,55,48,37,34,30,60,46,31,0.00,40.00,16,3,16,0.00
2013-6-20,69,56,39,34,32,28,71,42,25,0.00,40.00,11,2,11,0.00
2013-6-21,67,55,44,43,37,33,84,53,34,0.00,40.00,8,0,8,0.00
2013-6-22,78,62,39,40,35,32,88,44,21,0.00,40.00,8,1,8,0.00
2013-6-23,69,61,54,57,47,35,92,63,33,0.00,40.00,7,0,7,0.12
2013-6-24,66,57,52,54,47,40,93,72,40,0.00,40.00,6,0,6,0.08
2013-6-25,68,62,57,48,45,41,71,53,41,0.00,40.00,9,0,9,0.08
2013-6-26,71,64,57,53,50,45,72,61,39,0.00,40.00,6,1,6,0.00
2013-6-27,84,76,66,53,47,45,62,37,29,0.00,40.00,8,2,8,0.00
2013-6-28,91,83,66,55,50,43,65,33,20,0.00,40.00,8,1,8,0.00
2013-6-29,88,86,72,55,50,46,55,29,25,0.00,40.00,10,2,10,0.00
2013-6-30,94,88,80,50,47,44,33,25,19,0.00,40.00,10,2,10,0.00
2013-7-1,97,90,75,59,49,43,58,26,17,0.00,40.00,9,1,9,0.00
2013-7-2,99,83,64,60,52,43,79,39,16,0.00,40.00,12,1,12,0.00
2013-7-3,91,80,67,51,44,28,56,31,19,0.00,40.00,10,2,10,0.00
2013-7-4,83,76,66,39,35,28,32,23,19,0.00,40.00,8,2,8,0.00
2013-7-5,78,75,68,37,34,31,27,23,20,0.00,40.00,9,3,9,0.00
2013-7-6,82,76,70,37,34,29,27,22,16,0.00,40.00,9,1,9,0.00
2013-7-7,85,79,69,44,41,30,37,27,19,0.00,40.00,7,1,7,0.00
2013-7-8,86,78,67,40,38,35,35,24,18,0.00,40.00,7,1,7,0.00
2013-7-9,94,76,53,44,40,36,65,32,17,0.00,40.00,9,1,9,0.00
2013-7-10,94,76,57,48,42,31,68,33,17,0.00,40.00,12,2,12,0.00
2013-7-11,89,70,58,42,37,25,53,32,19,0.00,40.00,8,1,8,0.00
2013-7-12,79,74,64,34,32,28,29,22,18,0.00,40.00,12,3,12,0.12
2013-7-13,76,72,64,35,31,28,28,22,18,0.00,40.00,8,2,8,0.00
2013-7-14,90,81,65,37,34,28,24,19,15,0.00,40.00,7,1,7,0.00
2013-7-15,89,73,53,40,34,26,46,25,15,0.00,40.00,12,2,12,0.00
2013-7-16,86,74,63,42,34,26,34,23,18,0.00,40.00,10,2,10,0.00
2013-7-17,93,75,57,41,37,31,47,28,14,0.00,40.00,13,2,13,0.00
2013-7-18,86,67,51,40,38,35,58,38,16,0.00,40.00,8,1,8,0.00
2013-7-19,95,88,71,38,36,28,26,16,14,0.00,40.00,9,2,9,0.00
2013-7-20,96,87,74,39,35,28,21,16,14,0.00,40.00,9,2,9,0.00
2013-7-21,93,92,91,37,36,36,15,14,14,0.00,40.00,6,2,6,0.00
2013-7-22,96,88,77,40,36,30,21,16,14,0.00,40.00,10,2,10,0.00
2013-7-23,97,90,73,40,36,31,30,15,13,0.00,40.00,8,1,8,0.00
2013-7-24,97,89,75,40,37,32,23,16,14,0.00,40.00,7,1,7,0.00
2013-7-25,98,92,71,40,36,23,17,14,13,0.00,40.00,9,3,9,0.00
2013-7-26,98,87,72,40,35,26,21,16,13,0.00,40.00,12,2,12,0.00
2013-7-27,88,85,71,36,35,26,20,17,15,0.00,40.00,8,2,8,0.00
2013-7-28,84,77,67,35,32,30,26,20,16,0.00,40.00,8,2,8,0.00
2013-7-29,88,81,69,38,34,30,31,19,15,0.00,40.00,10,2,10,0.00
2013-7-30,89,80,67,44,36,31,42,21,15,0.00,40.00,9,2,9,0.00
2013-7-31,87,70,58,47,40,35,53,36,18,0.00,40.00,7,0,8,0.00
2013-8-1,77,66,59,54,46,36,82,52,31,0.00,40.00,12,2,12,0.00
2013-8-2,58,58,58,40,40,39,50,50,49,0.00,40.00,2,1,9,0.00
2013-8-3,86,82,74,39,37,33,28,20,16,0.00,40.00,8,1,8,0.00
2013-8-4,90,85,69,45,41,34,42,22,16,0.00,40.00,9,1,9,0.00
2013-8-5,92,79,66,46,41,34,45,27,17,0.00,40.00,8,1,8,0.00
2013-8-6,95,83,68,43,37,33,36,21,14,0.00,40.00,10,2,10,0.00
2013-8-7,90,83,73,40,38,34,26,20,18,0.00,40.00,13,3,13,0.00
2013-8-8,89,81,68,45,40,36,43,24,18,0.00,40.00,6,1,6,0.00
2013-8-9,90,75,59,54,45,38,80,40,18,0.00,40.00,16,1,16,0.00
2013-8-10,80,68,59,52,45,39,78,45,28,0.00,40.00,10,1,10,0.00
2013-8-11,83,73,59,48,41,37,64,34,20,0.00,40.00,10,2,10,0.00
2013-8-12,88,68,51,48,44,34,86,49,18,0.00,40.00,10,1,10,0.00
2013-8-13,89,80,66,44,39,35,44,24,18,0.00,40.00,8,1,8,0.00
2013-8-14,91,81,67,42,40,38,35,23,18,0.00,40.00,10,2,10,0.00
2013-8-15,86,74,58,43,40,37,50,32,21,0.00,40.00,6,1,6,0.00
2013-8-16,88,82,75,55,48,44,49,30,23,0.00,40.00,11,2,11,0.00
2013-8-17,88,79,66,48,43,38,49,30,19,0.00,40.00,9,2,9,0.00
2013-8-18,89,83,65,46,42,39,51,25,18,0.00,40.00,8,1,8,0.00
2013-8-19,89,83,72,46,42,40,35,24,19,0.00,40.00,8,2,8,0.00
2013-8-20,86,78,67,44,34,27,43,21,14,0.00,40.00,9,2,9,0.00
2013-8-21,88,78,68,39,35,28,30,21,16,0.00,40.00,8,2,8,0.00
2013-8-22,83,70,62,59,46,29,82,47,19,0.00,40.00,10,1,10,0.00
2013-8-23,85,77,60,51,42,36,67,31,20,0.00,40.00,12,3,12,0.00
2013-8-24,85,72,60,56,44,35,72,42,20,0.00,40.00,12,2,12,0.00
2013-8-25,74,59,52,55,52,46,98,79,39,0.00,40.00,9,1,10,0.00
2013-8-26,77,70,57,52,43,40,83,39,29,0.00,40.00,8,1,8,0.00
2013-8-27,83,76,62,52,43,39,68,33,22,0.00,40.00,8,2,8,0.00
2013-8-28,87,78,62,52,43,38,68,31,19,0.00,40.00,8,1,8,0.00
2013-8-29,86,75,65,53,46,41,64,38,22,0.00,40.00,10,2,10,0.00
2013-8-30,81,69,61,50,46,41,67,45,25,0.00,40.00,8,1,8,0.00
2013-8-31,74,69,61,50,45,39,67,44,31,0.00,40.00,5,1,5,0.00
2013-9-1,92,80,62,47,42,36,53,29,14,0.00,40.00,8,2,8,0.00
2013-9-2,85,68,54,50,45,38,78,47,20,0.00,40.00,10,1,10,0.00
2013-9-3,86,66,51,50,45,36,91,52,19,0.00,40.00,9,1,9,0.00
2013-9-4,86,66,49,49,44,36,87,52,18,0.00,40.00,8,1,8,0.00
2013-9-5,65,55,51,49,47,45,87,76,48,0.00,40.00,6,0,6,0.00
2013-9-6,58,57,56,46,46,45,71,67,62,0.00,40.00,4,0,4,0.00
2013-9-7,68,61,53,46,43,42,74,54,40,0.00,40.00,6,2,6,0.00
2013-9-8,77,72,62,44,41,37,46,32,27,27.34,27.32,8,2,8,0.00
2013-9-9,85,64,51,42,40,35,68,46,19,27.32,27.23,9,2,9,0.00
2013-9-10,86,77,53,43,39,36,62,28,19,27.29,27.20,9,2,9,0.00
2013-9-11,88,85,56,42,41,40,56,22,19,27.34,27.26,8,2,8,0.00
2013-9-12,90,80,64,45,39,28,40,23,18,27.29,27.17,10,1,10,0.00
2013-9-13,86,68,53,42,36,28,50,32,21,27.23,27.11,8,0,8,0.00
2013-9-14,88,71,53,45,42,36,71,39,19,27.17,27.05,10,1,10,0.00
2013-9-15,92,70,56,49,41,31,65,39,14,27.14,26.96,15,2,15,0.00
2013-9-16,72,58,48,43,41,36,82,57,28,27.23,27.14,8,1,8,0.00
2013-9-17,64,58,52,49,39,33,67,50,35,27.23,27.08,6,1,6,0.00
2013-9-18,66,55,46,38,35,30,71,50,27,27.32,27.26,5,1,6,0.00
2013-9-19,73,53,40,35,33,31,76,52,24,27.32,27.20,10,2,10,0.00
2013-9-20,77,61,41,48,33,28,74,38,21,27.20,26.90,10,2,10,0.00
2013-9-21,68,60,48,48,37,35,77,44,30,27.05,26.93,9,2,10,0.04
2013-9-22,65,54,49,42,38,34,67,55,34,27.11,26.99,10,2,10,0.04
2013-9-23,66,62,52,37,36,33,49,37,34,27.23,27.11,10,3,10,0.04
2013-9-24,60,50,46,47,40,32,92,70,42,27.23,27.11,6,1,9,0.16
2013-9-25,55,50,46,43,34,30,78,55,41,27.17,27.11,8,1,8,0.20
2013-9-26,57,51,46,41,34,29,68,52,40,27.29,27.29,8,1,8,0.08
2013-9-27,62,53,38,41,33,29,76,49,30,27.37,27.26,10,2,10,0.08
2013-9-28,65,61,47,47,43,38,79,53,40,27.29,26.93,15,4,15,0.47
2013-9-29,57,52,46,48,41,34,94,68,43,27.02,26.81,23,4,23,0.31
2013-9-30,57,52,46,48,32,28,92,46,38,27.26,26.81,18,6,18,0.12
2013-10-1,51,48,39,37,32,28,73,55,47,27.40,27.26,6,1,6,0.12
2013-10-2,50,44,33,37,30,26,86,58,42,27.40,27.26,8,1,8,0.12
2013-10-3,52,42,36,38,30,27,96,64,40,27.61,27.34,8,0,8,0.12
2013-10-4,59,52,30,31,29,26,89,43,30,27.70,27.61,7,1,7,0.04
2013-10-5,66,54,42,32,29,26,64,40,24,27.61,27.46,8,1,8,0.04
2013-10-6,71,60,42,32,29,25,63,32,22,27.46,27.26,5,2,5,0.04
2013-10-7,56,51,44,34,31,28,61,47,33,27.34,27.26,12,3,12,0.04
2013-10-8,53,48,42,35,31,29,69,53,41,27.29,27.20,11,2,11,0.04
2013-10-9,49,43,38,34,31,29,82,64,48,27.29,27.20,6,0,6,0.04
2013-10-10,58,54,38,33,29,27,82,39,34,27.23,27.17,6,2,6,0.00
2013-10-11,56,51,38,33,31,27,79,47,36,27.34,27.23,6,0,6,0.00
2013-10-12,51,47,38,38,33,28,80,58,42,27.34,27.26,8,1,8,0.00
2013-10-13,56,51,37,37,31,28,78,47,37,27.49,27.34,10,1,10,0.00
2013-10-14,56,46,37,32,29,23,76,52,35,27.58,27.49,7,1,7,0.00
2013-10-15,58,51,37,28,26,24,59,37,29,27.58,27.43,6,2,6,0.00
2013-10-16,59,46,33,29,26,22,72,48,27,27.43,27.34,8,1,8,0.00
2013-10-17,60,44,30,30,28,25,83,56,28,27.49,27.40,6,0,6,0.00
2013-10-18,60,47,36,32,30,28,74,53,34,27.49,27.40,7,1,7,0.00
2013-10-19,68,62,36,31,30,26,73,30,23,27.43,27.32,8,2,8,0.00
2013-10-20,54,52,50,29,28,27,42,39,38,27.43,27.32,6,2,6,0.00
2013-10-21,68,61,44,33,32,29,60,34,26,27.43,27.37,10,1,10,0.00
2013-10-22,60,56,44,33,32,31,60,40,36,27.40,27.40,4,1,4,0.00
2013-10-23,64,55,47,36,33,30,61,44,34,27.40,27.29,8,1,8,0.00
2013-10-24,64,59,46,36,35,33,63,41,35,27.34,27.29,6,1,6,0.00
2013-10-25,65,59,46,36,34,32,59,39,33,27.46,27.32,8,1,8,0.00
2013-10-26,61,60,50,33,33,33,51,37,35,27.43,27.40,8,2,8,0.00
2013-10-27,61,43,41,43,39,28,98,87,35,27.40,27.05,12,2,12,0.20
2013-10-28,41,35,32,41,19,17,98,53,47,27.14,27.05,9,1,9,0.00
2013-10-29,34,33,32,20,19,17,60,57,54,27.26,27.14,0,0,0,0.00
2013-10-30,53,41,32,32,29,20,76,63,37,27.37,27.26,6,0,6,0.00
2013-10-31,59,52,39,40,37,29,68,57,48,27.40,27.37,10,3,10,0.00
2013-11-1,59,50,38,40,36,32,98,63,40,27.49,27.32,6,1,8,0.00
2013-11-2,51,51,51,37,37,29,60,60,60,27.32,27.26,0,0,0,0.00
2013-11-4,50,43,40,30,27,26,66,55,40,27.37,27.32,10,2,10,0.00
2013-11-5,50,47,41,39,37,30,75,68,63,27.43,27.34,11,2,11,0.00
2013-11-6,60,50,43,43,41,37,95,75,44,27.49,27.37,5,1,5,0.00
2013-11-7,49,45,40,48,33,25,96,66,48,27.37,27.17,17,5,17,0.16
2013-11-8,49,43,39,33,31,26,80,64,42,27.37,27.32,6,1,6,0.16
2013-11-9,44,40,36,34,30,26,87,68,51,27.34,27.32,5,0,5,0.00
2013-11-10,47,46,38,35,34,32,79,63,58,27.34,27.32,5,1,5,0.00
2013-11-11,45,42,40,40,37,35,98,82,68,27.49,27.34,2,0,3,0.00
2013-11-12,54,48,41,42,40,36,90,74,61,27.58,27.49,4,0,4,0.00
2013-11-13,52,42,34,40,34,31,98,76,50,27.64,27.52,6,0,6,0.00
2013-11-14,38,33,28,31,26,24,92,74,63,27.52,27.29,0,0,0,0.00
2013-11-15,44,39,29,26,23,20,85,52,44,27.29,26.81,15,4,15,0.00
2013-11-16,46,42,38,27,24,22,61,49,41,27.05,26.81,15,5,15,0.00
2013-11-17,51,46,39,27,24,23,61,42,37,27.23,27.05,11,4,11,0.00
2013-11-18,51,48,41,34,30,25,64,51,39,27.23,27.02,11,1,11,0.00
2013-11-19,50,48,45,43,40,32,82,73,60,27.05,26.99,8,3,8,0.04
2013-11-20,47,32,25,42,8,0,83,36,32,27.46,27.02,8,3,9,0.04
2013-11-21,32,24,12,5,2,-5,48,38,30,27.79,27.46,7,1,7,0.04
2013-11-22,32,25,17,8,6,1,58,44,34,27.82,27.73,8,1,8,0.04
2013-11-23,34,25,15,12,9,4,65,51,38,27.76,27.52,5,0,5,0.00
2013-11-24,43,31,11,17,13,4,77,48,35,27.52,27.40,8,2,8,0.00
2013-11-25,39,29,16,17,15,11,79,56,39,27.58,27.49,6,0,6,0.00
2013-11-26,42,30,21,19,17,14,77,59,38,27.52,27.37,5,0,6,0.00
2013-11-27,39,32,21,21,19,15,81,61,45,27.34,27.26,6,1,9,0.00
2013-11-28,43,31,22,22,20,17,87,64,41,27.40,27.32,8,1,8,0.00
2013-11-29,48,40,25,24,22,20,83,50,37,27.49,27.43,6,2,8,0.00
2013-11-30,55,48,41,30,25,20,63,42,31,27.55,27.46,8,2,9,0.00
2013-12-1,57,52,48,38,35,32,63,50,45,27.37,27.11,15,6,18,0.00
2013-12-2,45,35,28,38,22,16,95,61,40,27.17,27.05,10,3,12,0.39
2013-12-3,29,18,10,22,6,-1,81,59,43,27.37,27.20,13,1,15,0.00
2013-12-4,22,12,3,4,-2,-11,61,53,42,27.43,27.37,6,0,6,0.00
2013-12-5,22,11,0,4,-3,-14,64,52,43,27.43,27.29,7,1,7,0.00
2013-12-6,14,12,10,5,2,0,66,65,62,27.32,27.14,11,2,11,0.00
2013-12-7,10,2,-12,1,-6,-21,66,66,66,27.49,27.20,10,2,10,0.04
2013-12-8,15,-2,-14,4,-14,-22,66,56,45,27.64,27.46,8,2,9,0.00
2013-12-9,29,12,0,8,-4,-16,59,49,41,27.64,27.55,11,3,11,0.00
2013-12-10,31,19,11,14,8,0,89,63,46,27.58,27.52,6,1,6,0.00
2013-12-11,38,27,12,18,15,8,89,61,42,27.55,27.43,8,2,10,0.04
2013-12-12,34,25,20,19,12,10,65,57,45,27.43,27.34,9,4,9,0.00
2013-12-13,43,32,27,29,25,21,97,78,53,27.61,27.34,8,2,8,0.00
2013-12-14,47,39,28,26,24,23,93,57,39,27.61,27.55,6,4,9,0.00
2013-12-15,53,44,32,35,28,21,91,56,36,27.58,27.52,9,1,10,0.00
2013-12-16,34,31,27,30,25,23,98,77,68,27.61,27.49,8,0,8,0.00
2013-12-17,53,43,34,26,22,19,53,43,33,27.40,27.32,9,2,9,0.00
2013-12-18,36,35,33,27,23,21,68,61,56,27.26,27.17,6,1,6,0.00
2013-12-19,31,27,24,10,7,5,52,43,39,27.43,27.37,5,1,6,0.00
2013-12-20,31,28,25,21,18,10,71,68,52,27.37,27.23,8,5,9,0.00
2013-12-21,48,46,44,30,30,29,58,53,48,27.29,27.29,8,3,9,0.00
2013-12-22,51,44,37,34,31,29,83,63,43,27.52,27.43,8,1,8,0.00
2013-12-23,52,48,37,33,31,26,65,53,47,27.64,27.43,17,2,17,0.00
2013-12-24,42,37,30,28,26,25,89,67,51,27.70,27.67,6,3,8,0.00
2013-12-25,42,35,33,26,23,22,72,60,51,27.58,27.55,6,2,6,0.00
2013-12-26,53,42,29,26,24,21,78,52,33,27.55,27.46,8,1,8,0.00
2013-12-27,47,42,38,22,20,19,48,42,37,27.43,27.40,10,4,10,0.00
2013-12-28,44,40,34,22,20,19,54,46,39,27.61,27.55,5,1,6,0.00
2013-12-29,44,40,37,20,18,17,44,41,38,27.55,27.49,6,4,7,0.00
2013-12-30,47,44,40,23,21,19,47,40,35,27.43,27.37,6,2,8,0.00
2013-12-31,52,44,37,25,22,20,50,42,35,27.46,27.40,12,1,12,0.00
2014-1-1,47,42,33,29,26,24,82,54,43,27.55,27.46,6,1,6,0.00
2014-1-2,53,45,32,29,26,24,82,50,36,27.49,27.26,11,3,14,0.00